N9AZZ Weather Reports


Display with metric or nautical units.
time (UTC)temp
F
wind
direction
speed
MPH
gust
MPH
rain 1hr
in
rain 24hr
in
rain mn
in
humidity
%
barometer
mb
20260505073510 67 229 1.0 5.0 0.00 0.00 0.00 66 1007.4
20260505073037 67 157 1.0 5.0 0.00 0.00 0.00 66 1007.2
20260505072511 67 245 0.0 5.0 0.00 0.00 0.00 65 1007.2
20260505072013 67 163 2.0 5.0 0.00 0.00 0.00 65 1007.3
20260505071530 67 197 2.0 8.0 0.00 0.00 0.00 65 1007.2
20260505071015 67 219 2.0 8.0 0.00 0.00 0.00 65 1007.2
20260505070509 67 221 1.0 5.0 0.00 0.00 0.00 64 1007.4
20260505070038 67 136 1.0 5.0 0.00 0.00 0.00 64 1007.6
20260505065513 68 275 1.0 8.0 0.00 0.00 0.00 63 1007.6
20260505065012 68 286 2.0 8.0 0.00 0.00 0.00 63 1007.5
20260505064527 68 212 2.0 6.0 0.00 0.00 0.00 63 1007.5
20260505064011 68 210 2.0 7.0 0.00 0.00 0.00 62 1007.6
20260505063512 68 0 1.0 8.0 0.00 0.00 0.00 62 1007.6
20260505063030 68 114 3.0 8.0 0.00 0.00 0.00 62 1007.5
20260505062512 68 91 1.0 6.0 0.00 0.00 0.00 62 1007.4
20260505062012 68 141 1.0 6.0 0.00 0.00 0.00 61 1007.4
20260505061535 69 240 1.0 10.0 0.00 0.00 0.00 61 1007.4
20260505061010 69 286 2.0 10.0 0.00 0.00 0.00 60 1007.4
20260505060517 69 340 3.0 10.0 0.00 0.00 0.00 61 1007.4
20260505060026 69 248 2.0 6.0 0.00 0.00 0.00 60 1007.4
20260505055511 69 72 1.0 6.0 0.00 0.00 0.00 61 1007.3
20260505055012 69 210 2.0 6.0 0.00 0.00 0.00 60 1007.3
20260505054535 69 124 1.0 6.0 0.00 0.00 0.00 60 1007.3
20260505054014 70 251 2.0 11.0 0.00 0.00 0.00 60 1007.3
20260505053516 70 16 3.0 11.0 0.00 0.00 0.00 60 1007.1
20260505053031 70 207 3.0 11.0 0.00 0.00 0.00 59 1007.0
20260505052512 70 264 2.0 11.0 0.00 0.00 0.00 60 1007.0
20260505052013 70 111 3.0 11.0 0.00 0.00 0.00 59 1007.0
20260505051531 70 268 3.0 10.0 0.00 0.00 0.00 59 1007.2
20260505051013 70 217 3.0 10.0 0.00 0.00 0.00 59 1007.2
20260505050516 70 200 2.0 9.0 0.00 0.00 0.00 59 1007.3
20260505041537 71 221 3.0 9.0 0.00 0.00 0.00 59 1007.2
20260505041009 71 248 3.0 8.0 0.00 0.00 0.00 58 1007.2
20260505040511 71 187 2.0 7.0 0.00 0.00 0.00 59 1007.3
20260505040037 71 225 2.0 7.0 0.00 0.00 0.00 59 1007.2
20260505035514 71 309 2.0 8.0 0.00 0.00 0.00 59 1007.1
20260505035010 71 228 2.0 8.0 0.00 0.00 0.00 60 1007.0
20260505034528 71 241 2.0 5.0 0.00 0.00 0.00 60 1007.2
20260505034011 71 203 1.0 9.0 0.00 0.00 0.00 59 1007.2
20260505033508 71 68 3.0 9.0 0.00 0.00 0.00 59 1007.1
20260505033026 71 222 2.0 9.0 0.00 0.00 0.00 59 1007.2
20260505032507 71 75 3.0 9.0 0.00 0.00 0.00 59 1007.1
20260505032014 71 0 1.0 6.0 0.00 0.00 0.00 60 1006.9
20260505031537 71 146 2.0 6.0 0.00 0.00 0.00 59 1007.0
20260505031010 71 248 2.0 8.0 0.00 0.00 0.00 59 1006.9
20260505030510 71 265 1.0 8.0 0.00 0.00 0.00 59 1006.8
20260505030028 71 7 3.0 9.0 0.00 0.00 0.00 59 1006.8
20260505025510 71 174 3.0 9.0 0.00 0.00 0.00 59 1006.8
20260505025016 71 238 3.0 9.0 0.00 0.00 0.00 58 1006.9
20260505024528 71 207 1.0 8.0 0.00 0.00 0.00 59 1006.9
20260505024010 71 140 1.0 5.0 0.00 0.00 0.00 59 1006.9
20260505023507 71 0 2.0 5.0 0.00 0.00 0.00 58 1006.9
20260505023027 71 131 2.0 7.0 0.00 0.00 0.00 58 1006.9
20260505022508 71 128 2.0 7.0 0.00 0.00 0.00 58 1006.8
20260505022014 71 220 1.0 7.0 0.00 0.00 0.00 58 1006.7
20260505021526 71 134 0.0 6.0 0.00 0.00 0.00 59 1006.7
20260505021010 71 242 1.0 6.0 0.00 0.00 0.00 58 1006.6
20260505020510 71 229 2.0 6.0 0.00 0.00 0.00 58 1006.6
20260505020028 72 169 2.0 6.0 0.00 0.00 0.00 57 1006.6
20260505015508 72 176 2.0 6.0 0.00 0.00 0.00 57 1006.3
20260505015009 72 223 1.0 7.0 0.00 0.00 0.00 56 1006.3
20260505014534 72 208 3.0 7.0 0.00 0.00 0.00 56 1006.1
20260505014011 72 0 2.0 8.0 0.00 0.00 0.00 56 1006.2
20260505013514 72 67 2.0 8.0 0.00 0.00 0.00 56 1006.2
20260505013025 72 125 2.0 8.0 0.00 0.00 0.00 56 1006.3
20260505012509 72 104 1.0 6.0 0.00 0.00 0.00 56 1006.3
20260505012012 73 229 1.0 6.0 0.00 0.00 0.00 55 1006.2
20260505011530 73 226 3.0 6.0 0.00 0.00 0.00 55 1006.2
20260505011008 73 249 1.0 5.0 0.00 0.00 0.00 55 1006.2
20260505010509 73 94 2.0 6.0 0.00 0.00 0.00 55 1006.1
20260505010028 73 139 1.0 6.0 0.00 0.00 0.00 53 1006.1
20260505005507 74 191 1.0 10.0 0.00 0.00 0.00 53 1006.0
20260505005010 74 201 3.0 10.0 0.00 0.00 0.00 53 1005.9
20260505004530 74 145 3.0 10.0 0.00 0.00 0.00 53 1005.7
20260505004011 74 137 2.0 6.0 0.00 0.00 0.00 54 1005.8
20260505003513 74 104 3.0 7.0 0.00 0.00 0.00 53 1005.6
20260505003027 75 147 3.0 8.0 0.00 0.00 0.00 52 1005.6
20260505002509 75 248 3.0 8.0 0.00 0.00 0.00 52 1005.5
20260505002013 75 192 2.0 8.0 0.00 0.00 0.00 51 1005.5
20260505001529 75 86 3.0 8.0 0.00 0.00 0.00 50 1005.5
20260505001011 76 253 2.0 10.0 0.00 0.00 0.00 50 1005.5
20260505000514 76 102 3.0 10.0 0.00 0.00 0.00 51 1005.5
20260505000038 76 226 2.0 8.0 0.00 0.00 0.00 52 1005.5
20260504235510 76 18 3.0 8.0 0.00 0.00 0.00 49 1005.6
20260504235013 76 93 2.0 10.0 0.00 0.00 0.00 50 1005.7
20260504234528 76 207 3.0 10.0 0.00 0.00 0.00 50 1005.6
20260504234008 77 329 2.0 8.0 0.00 0.00 0.00 49 1005.7
20260504233514 76 231 2.0 8.0 0.00 0.00 0.00 50 1005.8
20260504233033 77 58 3.0 9.0 0.00 0.00 0.00 49 1005.9
20260504232513 77 301 3.0 9.0 0.00 0.00 0.00 50 1005.9
20260504232012 77 86 4.0 9.0 0.00 0.00 0.00 48 1006.0
20260504231525 77 160 2.0 7.0 0.00 0.00 0.00 48 1006.1
20260504231012 77 221 2.0 10.0 0.00 0.00 0.00 48 1006.2
20260504230511 78 205 2.0 10.0 0.00 0.00 0.00 48 1006.2
20260504230028 78 88 3.0 9.0 0.00 0.00 0.00 47 1006.1
20260504225509 78 226 3.0 8.0 0.00 0.00 0.00 48 1006.1
20260504225010 78 145 3.0 8.0 0.00 0.00 0.00 48 1006.2
20260504224526 78 115 4.0 9.0 0.00 0.00 0.00 47 1006.2
20260504224011 77 172 3.0 12.0 0.00 0.00 0.00 48 1006.3
20260504223510 77 115 2.0 12.0 0.00 0.00 0.00 47 1006.2
20260504223044 77 303 4.0 12.0 0.00 0.00 0.00 47 1005.9
20260504222511 77 205 4.0 11.0 0.00 0.00 0.00 46 1006.1
20260504222015 78 131 4.0 12.0 0.00 0.00 0.00 45 1006.5
20260504221531 78 99 3.0 12.0 0.00 0.00 0.00 46 1006.7
20260504221013 78 229 2.0 10.0 0.00 0.00 0.00 46 1006.7
20260504220512 79 252 3.0 9.0 0.00 0.00 0.00 45 1006.8
20260504220028 79 252 2.0 17.0 0.00 0.00 0.00 47 1006.9
20260504215510 79 233 6.0 17.0 0.00 0.00 0.00 45 1006.9
20260504215012 79 163 3.0 9.0 0.00 0.00 0.00 48 1006.8
20260504214530 79 224 4.0 9.0 0.00 0.00 0.00 43 1006.8
20260504214010 79 139 4.0 9.0 0.00 0.00 0.00 47 1006.9
20260504213516 79 142 2.0 6.0 0.00 0.00 0.00 45 1007.2
20260504213040 79 81 2.0 10.0 0.00 0.00 0.00 43 1007.5
20260504212513 80 133 3.0 10.0 0.00 0.00 0.00 44 1007.6
20260504212012 80 234 3.0 15.0 0.00 0.00 0.00 45 1007.7
20260504211533 80 279 1.0 15.0 0.00 0.00 0.00 44 1007.7
20260504211012 80 240 3.0 8.0 0.00 0.00 0.00 44 1007.9
20260504210511 80 101 3.0 12.0 0.00 0.00 0.00 42 1007.9
20260504210026 80 110 3.0 12.0 0.00 0.00 0.00 41 1007.8
20260504205513 80 151 5.0 12.0 0.00 0.00 0.00 41 1007.9
20260504205011 80 101 4.0 13.0 0.00 0.00 0.00 42 1007.9
20260504204540 80 243 4.0 13.0 0.00 0.00 0.00 42 1007.9
20260504204016 80 259 4.0 12.0 0.00 0.00 0.00 39 1008.0
20260504203515 80 221 3.0 12.0 0.00 0.00 0.00 41 1007.9
20260504203030 80 231 3.0 9.0 0.00 0.00 0.00 43 1007.8
20260504202510 81 218 4.0 10.0 0.00 0.00 0.00 42 1007.8
20260504202012 81 256 3.0 11.0 0.00 0.00 0.00 45 1007.7
20260504201527 80 146 5.0 11.0 0.00 0.00 0.00 42 1007.7
20260504201013 80 276 4.0 10.0 0.00 0.00 0.00 44 1007.8
20260504200510 80 252 4.0 9.0 0.00 0.00 0.00 42 1007.7
20260504200031 80 245 4.0 13.0 0.00 0.00 0.00 42 1007.6
20260504195511 80 28 5.0 14.0 0.00 0.00 0.00 42 1007.5
20260504195012 80 99 5.0 14.0 0.00 0.00 0.00 44 1007.6
20260504194528 81 212 4.0 11.0 0.00 0.00 0.00 43 1007.7
20260504194010 80 240 4.0 12.0 0.00 0.00 0.00 44 1007.8
20260504193513 80 225 5.0 12.0 0.00 0.00 0.00 42 1007.9
20260504193027 80 257 3.0 11.0 0.00 0.00 0.00 40 1007.8
20260504192510 81 200 4.0 11.0 0.00 0.00 0.00 43 1008.0
20260504192013 81 136 4.0 11.0 0.00 0.00 0.00 41 1008.0
20260504191526 81 200 4.0 10.0 0.00 0.00 0.00 44 1007.8
20260504191011 80 248 4.0 10.0 0.00 0.00 0.00 41 1007.7
20260504190510 81 257 3.0 10.0 0.00 0.00 0.00 43 1007.8
20260504190027 81 205 4.0 10.0 0.00 0.00 0.00 45 1007.7
20260504185509 81 94 4.0 9.0 0.00 0.00 0.00 43 1007.6
20260504185011 81 290 4.0 13.0 0.00 0.00 0.00 44 1007.8
20260504184527 81 155 4.0 13.0 0.00 0.00 0.00 40 1007.8
20260504184008 81 172 5.0 11.0 0.00 0.00 0.00 43 1007.8
20260504183030 81 352 3.0 9.0 0.00 0.00 0.00 43 1008.0
20260504182511 81 233 3.0 8.0 0.00 0.00 0.00 44 1008.0
20260504182015 81 113 3.0 10.0 0.00 0.00 0.00 41 1008.1
20260504181526 81 301 3.0 15.0 0.00 0.00 0.00 42 1008.2
20260504181013 81 218 5.0 15.0 0.00 0.00 0.00 43 1008.2
20260504180511 80 217 3.0 12.0 0.00 0.00 0.00 43 1008.1
20260504180028 80 285 3.0 12.0 0.00 0.00 0.00 42 1008.4
20260504175510 80 205 4.0 13.0 0.00 0.00 0.00 44 1008.4
20260504175011 80 292 6.0 13.0 0.00 0.00 0.00 43 1008.7
20260504174526 81 248 4.0 9.0 0.00 0.00 0.00 45 1008.9
20260504174013 80 297 3.0 12.0 0.00 0.00 0.00 43 1008.8
20260504173512 80 217 4.0 12.0 0.00 0.00 0.00 48 1009.0
20260504173029 80 295 6.0 12.0 0.00 0.00 0.00 43 1009.2
20260504172509 80 230 4.0 10.0 0.00 0.00 0.00 46 1009.3
20260504171526 80 233 4.0 12.0 0.00 0.00 0.00 49 1009.3
20260504171016 79 255 4.0 12.0 0.00 0.00 0.00 47 1009.3
20260504170510 79 278 3.0 13.0 0.00 0.00 0.00 47 1009.3
20260504151015 75 84 2.0 7.0 0.00 0.00 0.00 60 1010.0
20260504150515 74 221 2.0 7.0 0.00 0.00 0.00 61 1010.0
20260504141010 69 237 2.0 7.0 0.00 0.00 0.00 69 1011.1
20260504140511 68 0 1.0 6.0 0.00 0.00 0.00 71 1011.0
20260504130511 63 218 1.0 5.0 0.00 0.00 0.00 75 1011.0
20260504110509 60 0 0.0 0.0 0.00 0.00 0.00 77 1010.8
20260504100510 62 117 0.0 3.0 0.00 0.00 0.00 73 1010.6
20260504081530 62 234 0.0 3.0 0.00 0.00 0.00 70 1010.4
20260504081010 62 233 1.0 5.0 0.00 0.00 0.00 70 1010.3
20260504080510 63 0 0.0 5.0 0.00 0.00 0.00 70 1010.4